Regional Weather Roundup
Issued by NWS

Home | Current Version | Previous Version | Text Only | Print | Product List | Glossary Off
Versions: 1 2 3 4 5 6 7 8 9 10 11 12 13 14 15 16 17 18 19 20 21 22 23 24 25 26 27 28 29 30 31 32 33 34 35 36 37 38 39 40 41 42 43 44 45 46 47 48 49 50

000
ASUS43 KLSX 231110
RWRMO

WEATHER SUMMARY FOR MISSOURI
NATIONAL WEATHER SERVICE SPRINGFIELD MO
600 AM CDT SAT JUL 23 2016

NOTE: "FAIR" INDICATES FEW OR NO CLOUDS BELOW 12,000 FEET WITH NO
       SIGNIFICANT WEATHER AND/OR OBSTRUCTIONS TO VISIBILITY.
       CURRENT SKY AND/OR WEATHER CONDITIONS ARE NOT AVAILABLE FOR
       CHILLICOTHE AND FARMINGTON.

MOZ001>031-035>038-043-044-053-054-231200-
...NORTHERN AND WESTERN MISSOURI...

CITY           SKY/WX    TMP DP  RH WIND       PRES   REMARKS
KANSAS CTY INT PTCLDY    78  72  81 S8G21     29.94F
KANSAS C DTWN  CLEAR     81  73  76 S6        29.93S
LEE`S SUMMIT   CLEAR     80  74  81 S8        29.96S
ST JOSEPH      CLOUDY    80  72  76 CALM      29.93S
CHILLICOTHE      N/A     77  75  93 S3        29.95S
KIRKSVILLE     CLEAR     76  74  93 S5        29.97S

$$
MOZ066>068-077>081-088>096-101>105-231200-
...SOUTHWEST MISSOURI...

CITY           SKY/WX    TMP DP  RH WIND       PRES   REMARKS
SPRINGFIELD    CLEAR     77  73  87 S3        30.01R FOG
JOPLIN         CLEAR     77  72  84 S7        29.97F
BRANSON        CLEAR     75  73  94 CALM      30.03S

$$
MOZ032>034-039>042-045>050-055>058-069>072-231200-
...CENTRAL MISSOURI...

CITY           SKY/WX    TMP DP  RH WIND       PRES   REMARKS
COLUMBIA       CLEAR     76  75  97 SE7       29.98S
JEFFERSON CITY CLEAR     75  74  96 SE5       29.97S
ROLLA          PTCLDY    73  69  87 S5        29.99F
SEDALIA        CLEAR     76  74  93 S7        29.98S
WHITEMAN AFB   CLEAR     76  76 100 S3        29.95S
OSAGE BEACH    CLEAR     76  74  93 CALM      30.00S

$$
MOZ051-052-059>065-231200-
...EAST CENTRAL MISSOURI...

CITY           SKY/WX    TMP DP  RH WIND       PRES   REMARKS
ST LOUIS INTL  MOCLDY    78  72  81 CALM      29.99S
SPIRIT OF STL  MOCLDY    73  72  96 CALM      29.97S
ST CHARLES     MOCLDY    73  73 100 CALM      29.97S FOG

$$
MOZ072>076-082>087-097>100-106>115-231200-
...SOUTH CENTRAL AND SOUTHEAST MISSOURI...

CITY           SKY/WX    TMP DP  RH WIND       PRES   REMARKS
CAPE GIRARDEAU FOG       74  73  97 CALM      29.98S VSB 1/4
FARMINGTON     CLOUDY    72  70  94 CALM      30.02S FOG
POPLAR BLUFF   CLEAR     75  74  96 CALM      29.98S
WEST PLAINS    CLEAR     74  71  91 CALM      30.04S

$$




USA.gov is the U.S. government's official web portal to all federal, state and local government web resources and services.